Accueil
METAR-TAF:

METAR-TAF

Aéroports :

Dijon, France

Aéroport de Dijon-Bourgogne

latitude: 47-16N, longitude: 005-05E, altitude: 222 m

Observation

Le bulletin a été fait il y a 20 minutes, à 10:30 UTC
Vent 13 kt de sud/sud-ouest, variant entre sud et ouest/sud-ouest
Température 17°C
Humidité 88%
Pression 1002 hPa
Visibilité: 2700 m
pluie faible

METAR: LFSD 291030Z AUTO 21013KT 180V250 9000 2700 -RA SCT019/// BKN027/// BKN050/// ///CB 17/15 Q1002

Heure: 12:50 (10:50 UTC)


TAF: absent

Observations et prévisions météorologiques de plus de 4000 aéroports (messages METAR et TAF).

Les stations disponibles sont représentées par des disques jaunes et rouges sur la carte.

Passer la souris dessus pour voir le nom de la station.

Cliquer dessus pour voir les observations et prévisions météorologiques.

Pour changer de carte: cliquez sur les boutons verts avec une croix noire pour zoomer, sur le bouton vert avec un tiret pour effectuer un zoom arrière, ou sur les flèches vertes pour les cartes adjacentes.


METAR-TAF: